Regional Weather Roundup
Issued by NWS

Home | Current Version | Previous Version | Text Only | Print | Product List | Glossary Off
Versions: 1 2 3 4 5 6 7 8 9 10 11 12 13 14 15 16 17 18 19 20 21 22 23 24 25 26 27 28 29 30 31 32 33 34 35 36 37 38 39 40 41 42 43 44 45 46 47 48 49 50

000
ASUS43 KBIS 302010
RWRND

NORTH DAKOTA REGIONAL WEATHER ROUNDUP
NATIONAL WEATHER SERVICE BISMARCK ND
300 PM CDT SAT AUG 30 2014

NOTE: "FAIR" INDICATES FEW OR NO CLOUDS BELOW 12,000 FEET WITH NO
SIGNIFICANT WEATHER AND/OR OBSTRUCTIONS TO VISIBILITY.


NDZ001>003-009>011-017-302100-
NORTHWEST NORTH DAKOTA

CITY           SKY/WX    TMP DP  RH WIND       PRES   REMARKS
WILLISTON      PTSUNNY   75  57  53 SE10      29.74F
MINOT          SUNNY     72  48  42 SE13      29.79F
MINOT AFB      SUNNY     71  50  47 SE16      29.79F
$$

NDZ018>021-031>035-040>046-302100-
SOUTHWEST NORTH DAKOTA

CITY           SKY/WX    TMP DP  RH WIND       PRES   REMARKS
BISMARCK       SUNNY     73  55  53 S14       29.83F
DICKINSON      SUNNY     75  58  55 SE17G25   29.77F
GARRISON         N/A     73  55  53 S13G20    29.80F
HETTINGER ARPT SUNNY     75  57  53 SE18G28   29.78F
$$

NDZ004>008-012>016-024-026-027-054-302100-
NORTHEAST NORTH DAKOTA

CITY           SKY/WX    TMP DP  RH WIND       PRES   REMARKS
GRAND FORKS    MOSUNNY   73  49  42 VRB5      29.86F
GRND FRKS AFB  SUNNY     70  52  52 CALM      29.87F
DEVILS LAKE    SUNNY     68  52  56 SE9       29.85F
$$

NDZ022-023-025-028>030-036>039-047>053-302100-
SOUTHEAST NORTH DAKOTA

CITY           SKY/WX    TMP DP  RH WIND       PRES   REMARKS
FARGO          MOSUNNY   72  58  61 E8        29.86F
JAMESTOWN      MOSUNNY   69  54  58 SE8       29.86F
$$




USA.gov is the U.S. government's official web portal to all federal, state and local government web resources and services.